Miscellaneous Local Product
Issued by NWS North Platte, NE

Home | Current Version | Previous Version | Text Only | Print | Product List | Glossary On
Versions: 1 2 3 4 5 6 7 8 9 10 11 12 13 14 15 16 17 18 19 20 21 22 23 24 25 26 27 28 29 30 31 32 33 34 35 36 37 38 39 40 41 42 43 44 45 46 47 48 49 50
000
AXUS43 KLBF 210810
MISLBF


WESTERN AND NORTH CENTRAL NEBRASKA HOURLY WEATHER ROUNDUP
NATIONAL WEATHER SERVICE NORTH PLATTE NE
300 AM CDT MON APR 21 2014

***STATIONS NOT REPORTING VARIABLES SUCH AS SKY/WEATHER OR
PRESSURE ARE PROVIDED BY THE NEBRASKA DEPARTMENT OF
ROADS...RAWS...AND APRS NETWORKS...AND ARE NOT UNDER
NATIONAL WEATHER SERVICE QUALITY CONTROL***

...OBSERVATIONS IN AND NEAR THE EASTERN PANHANDLE OF NEBRASKA...

CITY           SKY/WX    TMP DP  RH WIND       PRES   REMARKS
PINE RIDGE     CLEAR     39  28  64 CALM      30.17R
CHADRON        CLEAR     40  32  73 N5        30.19R
ALLIANCE       CLEAR     42  30  62 N8        30.16R
SIDNEY         MOCLDY    47  31  53 N13       30.17R
WHITECLAY        N/A     41  25  52 NW3         N/A
CRESCENT LAKE    N/A     47  26  44 N8          N/A
LISCO            N/A     49  27  43 W8          N/A
BIG SPRINGS      N/A     57  36  46 E3          N/A
LEWELLEN         N/A     52  26  36 W7          N/A
$$

...OBSERVATIONS IN SOUTHWEST NEBRASKA AND FAR NORTHEAST COLORADO...

CITY           SKY/WX    TMP DP  RH WIND       PRES   REMARKS
WRAY           FAIR      52  41  67 N15       30.07R
HOLYOKE        FAIR      54  37  54 N13       30.10R
IMPERIAL       CLEAR     55  38  52 N16       30.06R
OGALLALA       CLEAR     55  30  37 N21       30.07R
NORTH PLATTE   PTCLDY    55  38  52 N17       30.04R
MCCOOK         PTCLDY    53  51  93 NW6       30.02R
LEXINGTON      CLOUDY    59  55  84 N9        30.00R
PAXTON           N/A     56  40  54 NE3         N/A
SUTHERLAND       N/A     52  31  43 N10         N/A
MEDICINE CREEK   N/A     53  50  91 CALM        N/A
GOTHENBURG       N/A     57  51  80 CALM        N/A
CALLAWAY         N/A     58  49  72 NW10        N/A
$$

...OBSERVATIONS IN NORTH CENTRAL NEBRASKA...

CITY           SKY/WX    TMP DP  RH WIND       PRES   REMARKS
VALENTINE      PTCLDY    52  28  39 N10       30.09R
THEDFORD       CLEAR     55  30  37 N17G24    30.08R
AINSWORTH      PTCLDY    55  32  42 N14       30.07R
O`NEILL        CLOUDY    55  46  70 NW8       29.99R
ORD            CLOUDY    55  52  89 CALM      29.96F
BROKEN BOW     MOCLDY    55  52  89 NW12      30.00R
BROWNLEE         N/A     56  29  35 SE14        N/A
SPRINGVIEW       N/A     56  32  40 N9          N/A
DUNNING          N/A     56  32  41 NE6         N/A
BREWSTER         N/A     56  35  46 SW9         N/A
ROSE             N/A     54  42  63 E8          N/A
NEWPORT          N/A     55  39  56 W9          N/A
COMSTOCK         N/A     59  56  91 CALM        N/A
CHAMBERS         N/A     56  46  69 N10         N/A
EWING            N/A     60  47  63 NW12G21     N/A
$$

...SOME WEATHER OBSERVATIONS FROM AROUND THE REGION...

CITY           SKY/WX    TMP DP  RH WIND       PRES   REMARKS
DENVER         MOCLDY    51  36  56 N13       30.18R
LARAMIE        CLEAR     39  28  64 S5        30.25R
CHEYENNE       CLEAR     43  30  60 N10       30.25R
SCOTTSBLUFF    PTCLDY    50  27  40 VRB5      30.20R
RAPID CITY     CLEAR     40  23  50 NW9       30.17R WCI  34
PIERRE         CLEAR     43  27  53 NW10      30.06R
WINNER         FAIR      50  30  46 NW8       30.08R
SIOUX FALLS    CLOUDY    55  48  77 E7        29.88F
OMAHA          CLOUDY    63  57  81 SE7       29.94F
GRAND ISLAND   CLOUDY    60  55  83 W9        29.98F
KANSAS CITY    CLOUDY    65  54  67 SW8       29.99F
WICHITA        MOCLDY    57  54  89 S9        29.96F FOG
HAYS           CLOUDY    57  54  88 N3        29.96F
LIBERAL        CLOUDY    57  52  82 SW13      30.00F
GOODLAND       CLEAR     46  42  86 W7        30.04R
$$



USA.gov is the U.S. government's official web portal to all federal, state and local government web resources and services.